DECAYED

COSMOS 2251 DEB, 47070 (Decayed)

Orbit data source: Space-Track

COSMOS 2251 DEB, 47070 was space debris in LEO originally from a launch on Wed, 16 Jun 1993 UTC launched from the Plesetsk Missile And Space Complex (PKMTR). The debris from Iridium 33, an American commercial communications satellite, has been tracked extensively since its accidental collision with the defunct Russian satellite Cosmos 2251 in 2009. This event, occurring at high speed in low Earth orbit (LEO), generated thousands of pieces of space debris, significantly increasing the risk of further collisions. The Iridium 33 debris cloud has impacted space traffic management and orbital debris mitigation strategies, making it a subject of ongoing study in space situational awareness.

Not visible in the next 10 days
Identifier
47070, 1993-036BYA
Orbit
Decayed
Country
Flag of CISCIS
Related business
Manufacturer
Unknown
Mission
Decayed spacecraft
Bus & Motor
Unknown
Mass
Unknown
Launch date (UTC)
1993-06-16 (32 years ago)
Launch vehicle
Unknown
Launch site
Plesetsk Missile And Space Complex (PKMTR)
Object type
Payload
Rocket body
Debris
Shape & HBR
Unknown shape, 0.1 m
Radar Cross Section
Small (<0.1 m²)

Expand to show TLE details & history
Last TLE update: 9 months ago

TLE from 9 months ago
0 COSMOS 2251 DEB
1 47070U 93036BYA 25016.15744064  .00107667  00000-0  68026-2 0  9995
2 47070  74.0485 333.1245 0008298  63.1810 308.6270 15.08462101591903
Epoch: 2025-01-16T03:46Z
TLE epoch observation values (Epoch: 2025-01-16T03:46:42.871Z)
Latitude
11.23308°
Longitude
163.84281°
Altitude
539.253 km
Speed
7.596 km/s
True Right ascension
22h 25m 26s
True Declination
11° 09' 56"
Sunlit
Object was in daylight at epoch
Visualization orbit readout
Latitude
Unknown
Longitude
Unknown
Altitude
Unknown
Speed
Unknown
Apparent Right ascension
Unknown
Apparent Declination
Unknown
Sunlit
N/A
Visualization observer readout
Local Sidereal Time
15:15:11
Azimuth
Unknown
Elevation
Unknown
Doppler factor
Unknown
Orbital elements
Apogee altitude
544.181 km
Perigee altitude
532.703 km
Semi-major axis
6,916.579 km
Eccentricity
0.00083
Inclination
74.0485°
RAAN
333.1245°
Arg. of periapsis
63.181°
True anomaly
308.55267°
Mean anomaly
308.627°
Eccentric anomaly
308.58984°
Mean motion
3.77317 °/min
Orbital period
95.41 mins
BSTAR
0.0068026
Loading maneuver chart data...
Computing Atmospheric mass density...

Documentation

Showing up to 5 results
|